Regional Weather Roundup
Issued by NWS Midland/Odessa, TX

Skip options and go directly to product.
Home | Oldest Version | Next Version | Current Version | All | Text Only | Save Text | Print | Product List | Glossary On

Skip product version selection by date and time.   
432
ASUS44 KMAF 312202
RWRMAF
MIDLAND AREA WEATHER ROUNDUP
NATIONAL WEATHER SERVICE MIDLAND TX
500 PM CDT THU JUL 31 2014

...IN SOUTHWEST TEXAS AND SOUTHEAST NEW MEXICO...

CITY           SKY/WX    TMP DP  RH WIND       PRES   REMARKS
ALPINE         CLOUDY    75  60  58 NE10G16   30.27S
ANDREWS        FAIR      80  55  41 NE9       30.14F
ARTESIA        PTSUNNY   75  63  64 S7        30.17S
BIG SPRING     MOSUNNY   84  55  36 NE8G16    30.12S
CARLSBAD       PTSUNNY   76  59  55 SE3       30.15F
DRYDEN           N/A     95  63  34 NE9G20    30.03F
FORT STOCKTON  PTSUNNY   84  61  45 N8        30.13F
GUAD PASS      CLOUDY    65  60  84 NE26      30.25F
HOBBS          MOSUNNY   81  55  41 NE8       30.16F
MARFA          MOSUNNY   79  61  53 NE13      30.23F
MIDLAND AIRPK  MOSUNNY   83  58  42 E8        30.12F
MIDLAND INTL   MOSUNNY   83  59  44 N10       30.11F
ODESSA         MOSUNNY   83  58  42 E14G21    30.12F
PECOS          MOSUNNY   84  60  44 NW7       30.11F
PRESIDIO       FAIR      96  59  29 E13G20    30.00F
SEMINOLE       MOSUNNY   85  53  33 N8        30.15F HAZE
SNYDER         MOSUNNY   81  61  50 NE12      30.09F
WINK           PTSUNNY   86  59  39 CALM      30.09F
$$
...OTHER STATIONS IN TEXAS...

CITY           SKY/WX    TMP DP  RH WIND       PRES   REMARKS
ABILENE        CLOUDY    80  63  55 N15       30.06F
AMARILLO       SUNNY     80  51  36 N12G20    30.18F
AUSTIN         PTSUNNY   95  70  44 SW5       29.90F HX 101
BROWNSVILLE    MOSUNNY   92  73  53 SE20      29.91S HX 100
CORPUS CHRISTI MOSUNNY   95  73  48 SE16G23   29.90F HX 104
DALLAS FTW     CLOUDY    77  66  68 N15       29.99S
DEL RIO        MOSUNNY   98  68  37 VRB3      29.91F HX 103
EL PASO        MOSUNNY   89  56  32 N6        30.08F
HOUSTON INT    PTSUNNY   92  72  51 S7        29.91F
LUBBOCK        PTSUNNY   82  53  36 NE7       30.13F
SAN ANGELO     PTSUNNY   85  63  47 NE12      30.05F
SAN ANTONIO    PTSUNNY   91  73  55 NW10      29.93F
WACO           PTSUNNY   90  67  46 NW16G23   29.95F
WICHITA FALLS  NOT AVBL
$$
...OTHER LOCATIONS IN NEW MEXICO...

CITY           SKY/WX    TMP DP  RH WIND       PRES   REMARKS
ALAMAGORDO     PTSUNNY   86  57  37 S6        30.12F
ALBUQUERQUE    PTSUNNY   80  56  43 SW6       30.19F
CANNON AFB     NOT AVBL
CLOVIS         NOT AVBL
HOLLOMAN AFB   PTSUNNY   86  59  39 VRB5      30.09F
ROSWELL        PTSUNNY   82  60  47 E5        30.14F
RUIDOSO        PTSUNNY   66  59  77 SE15      30.35S
SANTA FE       MOSUNNY   76  56  49 MISG      30.24F
TRUTH OR CONSE SUNNY     88  55  32 SE7       30.12F
TUCUMCARI      SUNNY     82  48  30 VRB5      30.17F
$$

USA.gov is the U.S. government's official web portal to all federal, state and local government web resources and services.